Regional Weather Roundup
Issued by NWS Wilmington, NC

Home | Current Version | Previous Version | Text Only | Print | Product List | Glossary On
Versions: 1 2 3 4 5 6 7 8 9 10 11 12 13 14 15 16 17 18 19 20 21 22 23 24 25 26 27 28 29 30 31 32 33 34 35 36 37 38 39 40 41 42 43 44 45 46 47 48 49 50
000
ASUS42 KILM 311313
RWRILM
RWRILM
REGIONAL HOURLY WEATHER ROUNDUP
NATIONAL WEATHER SERVICE WILMINGTON NC
900 AM EDT MON AUG 31 2015

NOTE: "FAIR" INDICATES FEW OR NO CLOUDS BELOW 12,000 FEET WITH NO
SIGNIFICANT WEATHER AND/OR OBSTRUCTIONS TO VISIBILITY.

...............WFO WILMINGTON COUNTY WARNING AREA...............

......COASTAL NC AND SC COUNTIES......

CITY           SKY/WX    TMP DP  RH WIND       PRES   REMARKS
WILMINGTON     CLOUDY    78  74  87 SE8       30.08R
N MYRTLE BEACH RAIN      74  72  93 VRB3      30.09R FOG
MYRTLE BEACH   LGT RAIN  75  70  83 CALM      30.10R FOG

......INLAND NC AND SC COUNTIES.......

CITY           SKY/WX    TMP DP  RH WIND       PRES   REMARKS
LUMBERTON      CLOUDY    72  70  93 W3        30.10R
ELIZABETHTOWN  CLOUDY    74  74 100 CALM      30.10R
WHITEVILLE     RAIN      74  72  93 SW3       30.09R
FLORENCE       CLOUDY    72  70  93 NE7       30.10R
DARLINGTON     CLOUDY    70  66  88 N3        30.12R

....................REST OF NORTH CAROLINA......................

.........EASTERN NC.........

CITY           SKY/WX    TMP DP  RH WIND       PRES   REMARKS
CAPE HATTERAS  CLOUDY    79  73  82 E5        30.12S
JACKSONVILLE   CLOUDY    73  66  78 NE6       30.10R
MOREHEAD CITY  CLOUDY    77  72  84 SE8       30.11R
KENANSVILLE    LGT RAIN  71  70  96 CALM      30.10F
NEW BERN       CLOUDY    78  71  79 E5        30.12R
ELIZABETH CITY CLOUDY    77  69  76 CALM      30.13S

.........CENTRAL NC.........

CITY           SKY/WX    TMP DP  RH WIND       PRES   REMARKS
RALEIGH DURHAM LGT RAIN  68  67  96 E7        30.13S FOG
ROCKY MOUNT    LGT RAIN  70  68  93 NE8       30.12S FOG
ROANOKE RAPIDS NOT AVBL
FAYETTEVILLE   LGT RAIN  71  71 100 CALM      30.11R FOG
HOFFMAN        PTSUNNY   70  68  94 N5        30.10S

.........WESTERN NC.........

CITY           SKY/WX    TMP DP  RH WIND       PRES   REMARKS
CHARLOTTE      MOSUNNY   72  65  78 NE6       30.12S
GREENSBORO     LGT RAIN  68  68 100 E7        30.13S FOG
HICKORY        NOT AVBL
BOONE          NOT AVBL
ASHEVILLE      NOT AVBL

.....................REST OF SOUTH CAROLINA.....................

.........EASTERN SC.........

CITY           SKY/WX    TMP DP  RH WIND       PRES   REMARKS
CHARLESTON     LGT RAIN  75  73  93 CALM      30.05F FOG
BEAUFORT MCAS  CLOUDY    75  73  93 N6        30.06R
HILTON HEAD    CLOUDY    75  73  94 CALM      30.06R

.........CENTRAL SC.........

CITY           SKY/WX    TMP DP  RH WIND       PRES   REMARKS
COLUMBIA       CLOUDY    70  67  90 N6        30.10R FOG
ORANGEBURG     CLOUDY    71  67  87 NE7       30.09R
SUMTER SHAW    CLOUDY    70  68  93 N9        30.08R

.........WESTERN SC.........

CITY           SKY/WX    TMP DP  RH WIND       PRES   REMARKS
GREENVILLE     NOT AVBL
ROCK HILL      MOSUNNY   72  67  84 VRB5      30.12S
ANDERSON       SUNNY     69  64  84 NE5       30.13S
CLEMSON        NOT AVBL
GREENWOOD      PTSUNNY   70  66  87 N5        30.13S


...................COASTAL AND OFFSHORE REPORTS..................

................LOCAL PIERS AND NC RESERVE................


STATION/POSITION TIME  SKY/WX   TEMP    WIND        PRES    VSBY
                                AIR SEA DIR/SP/G
                 (UTC)          (F)     (DEG/KT/KT) (MB)    (MI)
JOHNY MRCER PIER NOT AVBL
NC RESRV MASNBRO NOT AVBL
OCEAN CREST PIER NOT AVBL
SPRINGMAID  PIER NOT AVBL


................COASTAL AND OFFSHORE BUOYS................


STATION/POSITION TIME  SKY/WX   TEMP    WIND        PRES    VSBY
                                AIR SEA DIR/SP/G
                 (UTC)          (F)     (DEG/KT/KT) (MB)    (MI)
DIMNDSHOAL 41025 1250            82 84  140/  4/  6 1020.0
WVE H/P(F/S)=  3/ 9 SWL H/P/D(F/S/D)=  3/120/ 9

CAPE LOOKOUT     1300            76     130/ 12/ 12 1019.5R
ONSLOW BAY 41036 NOT AVBL
ONSLOW BAY 41064 1208            81 81  100/ 10/ 14 1018.9S
ONSLOW BAY 41159 1225               81                N/A
WVE H/P(F/S)=  4/ 9 WND WVE H/P(F/S)=  3/ 9 SWL H/P/D(F/S/D)=  2/130/11

5SE WRITBC 41038 1208            78 82  130/ 10/ 14 1018.4R
MASNBO INL 41110 1219               82                N/A
WVE H/P(F/S)=  3/ 8 WND WVE H/P(F/S)=  3/ 8

WILM HARBR 41108 1211               82                N/A
WVE H/P(F/S)=  3/10 WND WVE H/P(F/S)=  3/10

27SE WRITB 41037 1200            74 81  130/ 10/ 12   N/A
FRYING PAN 41013 1250            83 82  190/  8/ 10 1018.8R
WVE H/P(F/S)=  4/ 9 WND WVE H/P(F/S)=  2/ 4 SWL H/P/D(F/S/D)=  3/110/ 9

SUNST NRSH 41024 1208            76     210/  8/ 12 1018.8R
CAPRS NRSH 41029 1208            78     210/ 19/ 25 1017.8R
EDISTO     41004 1250            82 84  170/ 17/ 21 1016.6R
WVE H/P(F/S)=  6/10 WND WVE H/P(F/S)=  5/ 6 SWL H/P/D(F/S/D)=  3/10



..........OFFSHORE BUOYS BEYOND 100 NM OFFSHORE...........
.....IN A TRIANGLE---HAT TO BERMUDA TO BAHAMAS TO HAT.....


STATION/POSITION TIME  SKY/WX   TEMP    WIND        PRES    VSBY
                                AIR SEA DIR/SP/G
                 (UTC)          (F)     (DEG/KT/KT) (MB)    (MI)
150E HAT   41001 1200            82 82  280/ 10/ 12 1020.5R
W BERMUDA  41048 1250            83 83  270/  8/ 10 1021.1F
WVE H/P(F/S)=  3/10 WND WVE H/P(F/S)=  2/ 4 SWL H/P/D(F/S/D)=  3/ 80/10

ATLANTIC S 41049 1250            84 86   70/  6/  8 1020.8R
WVE H/P(F/S)=  4/ 8 SWL H/P/D(F/S/D)=  3/ 70/ 8

E BAHAMAS  41046 1250            85 85  110/  8/ 10 1019.4R
WVE H/P(F/S)=  4/10 WND WVE H/P(F/S)=  2/ 4 SWL H/P/D(F/S/D)=  3/ 50/10

NE BAHAMAS 41047 1250            84 85   90/  4/  6 1019.7R
WVE H/P(F/S)=  4/10 WND WVE H/P(F/S)=  2/ 4 SWL H/P/D(F/S/D)=  3/ 60/10

120E CANVRL41010 1220            83 85  140/ 12/ 14 1017.8R

END



USA.gov is the U.S. government's official web portal to all federal, state and local government web resources and services.